Location: Bald Rock
(37.3738°N, 119.9354°W)
Time: 22:36:10
(UTC+00:00)

Cosmos 1862 - Pass Details

Date: 08 September 2024
Orbit: 499 x 516 km, 82.5° (Epoch: 12 October)

Event Time Altitude Azimuth Distance (km) Brightness Sun altitude
Rises 12:54:25 0° 335° (NNW) 2,601 6.7 -9.1°
Reaches altitude 10° 12:56:58 10° 318° (NW) 1,709 5.6 -8.6°
Maximum altitude 12:59:40 19° 271° (W) 1,232 4.5 -8.0°
Drops below altitude 10° 13:02:22 10° 225° (SW) 1,698 5.3 -7.5°
Sets 13:04:54 0° 207° (SSW) 2,576 6.4 -7.0°
